Time,TemperatureF,DewpointF,PressureIn,WindDirection,WindDirectionDegrees,WindSpeedMPH,WindSpeedGustMPH,Humidity,HourlyPrecipIn,Conditions,Clouds,dailyrainin,SoftwareType,DateUTC
2013-02-10 00:00:00,26.8,18.7,30.35,NNE,23,0.0,0.0,71,0.00,CLR,,0.00,WeatherDisplay:10.37,2013-02-10 05:00:00,
2013-02-10 00:15:00,26.6,18.8,30.36,NNE,23,0.0,1.0,72,0.00,CLR,,0.00,WeatherDisplay:10.37,2013-02-10 05:15:00,
2013-02-10 00:30:00,26.4,18.9,30.36,NNE,23,0.0,0.0,73,0.00,CLR,,0.00,WeatherDisplay:10.37,2013-02-10 05:30:00,
2013-02-10 00:45:00,26.1,18.9,30.36,NNE,23,0.0,0.0,74,0.00,CLR,,0.00,WeatherDisplay:10.37,2013-02-10 05:45:00,
2013-02-10 01:00:00,25.8,19.0,30.36,NNE,23,0.0,0.0,75,0.00,CLR,,0.00,WeatherDisplay:10.37,2013-02-10 06:00:00,
2013-02-10 01:15:00,25.6,19.1,30.36,NNE,23,0.0,0.0,76,0.00,CLR,,0.00,WeatherDisplay:10.37,2013-02-10 06:15:00,
2013-02-10 01:30:00,25.3,18.8,30.37,NNE,23,0.0,0.0,76,0.00,CLR,,0.00,WeatherDisplay:10.37,2013-02-10 06:30:00,
2013-02-10 01:45:00,25.1,18.9,30.37,NNE,23,0.0,0.0,77,0.00,CLR,,0.00,WeatherDisplay:10.37,2013-02-10 06:45:00,
2013-02-10 02:00:00,24.9,18.7,30.38,NNE,23,0.0,0.0,77,0.00,CLR,,0.00,WeatherDisplay:10.37,2013-02-10 07:00:00,
2013-02-10 02:15:00,24.8,18.9,30.38,NNE,23,0.0,0.0,78,0.00,CLR,,0.00,WeatherDisplay:10.37,2013-02-10 07:15:00,
2013-02-10 02:30:00,24.6,18.7,30.39,NNE,23,0.0,0.0,78,0.00,CLR,,0.00,WeatherDisplay:10.37,2013-02-10 07:30:00,
2013-02-10 02:45:00,24.5,18.9,30.39,NNE,23,0.0,0.0,79,0.00,CLR,,0.00,WeatherDisplay:10.37,2013-02-10 07:45:00,
2013-02-10 03:00:00,24.3,19.0,30.39,NNE,23,0.0,0.0,80,0.00,CLR,,0.00,WeatherDisplay:10.37,2013-02-10 08:00:00,
2013-02-10 03:15:00,24.1,18.9,30.39,NNE,23,0.0,0.0,80,0.00,CLR,,0.00,WeatherDisplay:10.37,2013-02-10 08:15:00,
2013-02-10 03:30:00,23.9,18.6,30.39,NNE,23,0.0,0.0,80,0.00,CLR,,0.00,WeatherDisplay:10.37,2013-02-10 08:30:00,
2013-02-10 03:45:00,23.7,18.7,30.39,NNE,23,0.0,0.0,81,0.00,CLR,,0.00,WeatherDisplay:10.37,2013-02-10 08:45:00,
2013-02-10 04:00:00,23.6,18.6,30.38,NNE,23,0.0,0.0,81,0.00,CLR,,0.00,WeatherDisplay:10.37,2013-02-10 09:00:00,
2013-02-10 04:15:00,23.6,18.6,30.38,NNE,23,0.0,0.0,81,0.00,CLR,,0.00,WeatherDisplay:10.37,2013-02-10 09:15:00,
2013-02-10 04:30:00,23.6,18.9,30.39,NNE,23,0.0,0.0,82,0.00,CLR,,0.00,WeatherDisplay:10.37,2013-02-10 09:30:00,
2013-02-10 04:45:00,23.7,19.0,30.39,NNE,23,0.0,0.0,82,0.00,CLR,,0.00,WeatherDisplay:10.37,2013-02-10 09:45:00,
2013-02-10 05:00:00,23.9,19.5,30.39,NNE,23,0.0,0.0,83,0.00,CLR,,0.00,WeatherDisplay:10.37,2013-02-10 10:00:00,
2013-02-10 05:15:00,24.0,19.6,30.39,NNE,23,0.0,0.0,83,0.00,CLR,,0.00,WeatherDisplay:10.37,2013-02-10 10:15:00,
2013-02-10 05:30:00,24.1,19.7,30.39,NNE,23,0.0,0.0,83,0.00,CLR,,0.00,WeatherDisplay:10.37,2013-02-10 10:30:00,
2013-02-10 05:45:00,24.1,19.7,30.40,NNE,23,0.0,0.0,83,0.00,CLR,,0.00,WeatherDisplay:10.37,2013-02-10 10:45:00,
2013-02-10 06:00:00,24.1,19.4,30.41,NNE,23,0.0,0.0,82,0.00,CLR,,0.00,WeatherDisplay:10.37,2013-02-10 11:00:00,
2013-02-10 06:15:00,23.9,19.5,30.41,NNE,23,0.0,0.0,83,0.00,CLR,,0.00,WeatherDisplay:10.37,2013-02-10 11:15:00,
2013-02-10 06:30:00,24.1,19.7,30.41,NNE,23,0.0,0.0,83,0.00,CLR,,0.00,WeatherDisplay:10.37,2013-02-10 11:30:00,
2013-02-10 06:45:00,24.3,19.9,30.42,NNE,23,0.0,0.0,83,0.00,CLR,,0.00,WeatherDisplay:10.37,2013-02-10 11:45:00,
2013-02-10 07:00:00,24.7,20.6,30.42,NNE,23,0.0,0.0,84,0.00,CLR,,0.00,WeatherDisplay:10.37,2013-02-10 12:00:00,
2013-02-10 07:15:00,24.9,20.8,30.43,NNE,23,0.0,0.0,84,0.00,CLR,,0.00,WeatherDisplay:10.37,2013-02-10 12:15:00,
2013-02-10 07:30:00,25.4,21.2,30.44,NNE,23,0.0,0.0,84,0.00,CLR,,0.00,WeatherDisplay:10.37,2013-02-10 12:30:00,
2013-02-10 07:45:00,25.8,21.3,30.45,NNE,23,0.0,0.0,83,0.00,CLR,,0.00,WeatherDisplay:10.37,2013-02-10 12:45:00,
2013-02-10 08:00:00,26.3,21.8,30.46,NNE,23,0.0,0.0,83,0.00,CLR,,0.00,WeatherDisplay:10.37,2013-02-10 13:00:00,
2013-02-10 08:15:00,26.9,22.4,30.47,NNE,23,0.0,0.0,83,0.00,CLR,,0.00,WeatherDisplay:10.37,2013-02-10 13:15:00,
2013-02-10 08:30:00,27.4,23.0,30.47,NNE,23,0.0,0.0,83,0.00,FEW,,0.00,WeatherDisplay:10.37,2013-02-10 13:30:00,
2013-02-10 08:45:00,28.1,23.3,30.47,NNE,23,0.0,0.0,82,0.00,FEW,,0.00,WeatherDisplay:10.37,2013-02-10 13:45:00,
2013-02-10 09:00:00,29.3,24.5,30.46,NNE,23,0.0,1.0,82,0.00,FEW,,0.00,WeatherDisplay:10.37,2013-02-10 14:00:00,
2013-02-10 09:15:00,32.3,25.3,30.45,NE,52,2.0,4.0,75,0.00,FEW,,0.00,WeatherDisplay:10.37,2013-02-10 14:15:00,
2013-02-10 09:30:00,35.5,25.2,30.46,ENE,61,1.0,4.0,66,0.00,CLR,,0.00,WeatherDisplay:10.37,2013-02-10 14:30:00,
2013-02-10 09:45:00,38.0,25.7,30.47,ENE,61,1.0,4.0,61,0.00,CLR,,0.00,WeatherDisplay:10.37,2013-02-10 14:45:00,
2013-02-10 10:00:00,40.0,24.2,30.46,ENE,75,3.0,6.0,53,0.00,CLR,,0.00,WeatherDisplay:10.37,2013-02-10 15:00:00,
2013-02-10 10:15:00,40.3,22.1,30.47,ENE,78,1.0,6.0,48,0.00,CLR,,0.00,WeatherDisplay:10.37,2013-02-10 15:15:00,
2013-02-10 10:30:00,41.9,22.6,30.47,East,88,3.0,5.0,46,0.00,CLR,,0.00,WeatherDisplay:10.37,2013-02-10 15:30:00,
2013-02-10 10:45:00,42.9,23.5,30.46,ESE,107,2.0,6.0,46,0.00,CLR,,0.00,WeatherDisplay:10.37,2013-02-10 15:45:00,
2013-02-10 11:00:00,43.9,22.8,30.45,ESE,112,3.0,9.0,43,0.00,CLR,,0.00,WeatherDisplay:10.37,2013-02-10 16:00:00,
2013-02-10 11:15:00,45.0,21.5,30.47,East,89,1.0,6.0,39,0.00,CLR,,0.00,WeatherDisplay:10.37,2013-02-10 16:15:00,
2013-02-10 11:30:00,45.9,22.9,30.45,South,190,3.0,8.0,40,0.00,CLR,,0.00,WeatherDisplay:10.37,2013-02-10 16:30:00,
2013-02-10 11:45:00,46.8,23.1,30.45,SSW,199,2.0,8.0,39,0.00,CLR,,0.00,WeatherDisplay:10.37,2013-02-10 16:45:00,
2013-02-10 12:00:00,47.1,21.5,30.44,ESE,121,5.0,8.0,36,0.00,CLR,,0.00,WeatherDisplay:10.37,2013-02-10 17:00:00,
2013-02-10 12:15:00,47.8,22.1,30.42,East,101,3.0,7.0,36,0.00,CLR,,0.00,WeatherDisplay:10.37,2013-02-10 17:15:00,
2013-02-10 12:30:00,48.5,22.8,30.41,SSE,159,1.0,5.0,36,0.00,CLR,,0.00,WeatherDisplay:10.37,2013-02-10 17:30:00,
2013-02-10 12:45:00,49.5,21.5,30.39,SE,133,2.0,8.0,33,0.00,CLR,,0.00,WeatherDisplay:10.37,2013-02-10 17:45:00,
2013-02-10 13:00:00,50.1,22.1,30.38,ESE,117,5.0,9.0,33,0.00,CLR,,0.00,WeatherDisplay:10.37,2013-02-10 18:00:00,
2013-02-10 13:15:00,50.6,22.5,30.37,South,169,6.0,9.0,33,0.00,CLR,,0.00,WeatherDisplay:10.37,2013-02-10 18:15:00,
2013-02-10 13:30:00,50.3,22.3,30.38,SSE,160,6.0,12.0,33,0.00,CLR,,0.00,WeatherDisplay:10.37,2013-02-10 18:30:00,
2013-02-10 13:45:00,50.3,22.3,30.37,SSE,163,1.0,7.0,33,0.00,CLR,,0.00,WeatherDisplay:10.37,2013-02-10 18:45:00,
2013-02-10 14:00:00,50.3,21.5,30.36,South,174,2.0,10.0,32,0.00,CLR,,0.00,WeatherDisplay:10.37,2013-02-10 19:00:00,
2013-02-10 14:15:00,50.5,21.7,30.34,South,190,2.0,8.0,32,0.00,CLR,,0.00,WeatherDisplay:10.37,2013-02-10 19:15:00,
2013-02-10 14:30:00,51.3,23.2,30.32,ESE,111,2.0,8.0,33,0.00,CLR,,0.00,WeatherDisplay:10.37,2013-02-10 19:30:00,
2013-02-10 14:45:00,51.8,21.3,30.31,SE,144,3.0,14.0,30,0.00,CLR,,0.00,WeatherDisplay:10.37,2013-02-10 19:45:00,
2013-02-10 15:00:00,52.2,21.7,30.32,SE,141,3.0,9.0,30,0.00,CLR,,0.00,WeatherDisplay:10.37,2013-02-10 20:00:00,
2013-02-10 15:15:00,52.6,22.8,30.32,SE,137,3.0,9.0,31,0.00,CLR,,0.00,WeatherDisplay:10.37,2013-02-10 20:15:00,
2013-02-10 15:30:00,53.0,22.4,30.32,South,173,3.0,8.0,30,0.00,CLR,,0.00,WeatherDisplay:10.37,2013-02-10 20:30:00,
2013-02-10 15:45:00,52.4,21.0,30.32,ESE,120,1.0,12.0,29,0.00,CLR,,0.00,WeatherDisplay:10.37,2013-02-10 20:45:00,
2013-02-10 16:00:00,52.1,21.6,30.33,SSW,202,6.0,12.0,30,0.00,CLR,,0.00,WeatherDisplay:10.37,2013-02-10 21:00:00,
2013-02-10 16:15:00,51.9,22.9,30.31,SSE,159,1.0,10.0,32,0.00,CLR,,0.00,WeatherDisplay:10.37,2013-02-10 21:15:00,
2013-02-10 16:30:00,51.5,21.8,30.30,SE,141,1.0,9.0,31,0.00,CLR,,0.00,WeatherDisplay:10.37,2013-02-10 21:30:00,
2013-02-10 16:45:00,51.2,21.6,30.30,SE,144,1.0,10.0,31,0.00,CLR,,0.00,WeatherDisplay:10.37,2013-02-10 21:45:00,
2013-02-10 17:00:00,50.8,22.0,30.29,SE,132,1.0,7.0,32,0.00,CLR,,0.00,WeatherDisplay:10.37,2013-02-10 22:00:00,
2013-02-10 17:15:00,50.2,22.2,30.27,SE,137,2.0,7.0,33,0.00,CLR,,0.00,WeatherDisplay:10.37,2013-02-10 22:15:00,
2013-02-10 17:30:00,49.8,21.8,30.28,South,177,1.0,7.0,33,0.00,CLR,,0.00,WeatherDisplay:10.37,2013-02-10 22:30:00,
2013-02-10 17:45:00,49.3,21.4,30.28,SE,144,1.0,4.0,33,0.00,CLR,,0.00,WeatherDisplay:10.37,2013-02-10 22:45:00,
2013-02-10 18:00:00,48.6,20.8,30.28,South,178,1.0,3.0,33,0.00,CLR,,0.00,WeatherDisplay:10.37,2013-02-10 23:00:00,
2013-02-10 18:15:00,47.7,20.0,30.28,South,178,0.0,1.0,33,0.00,CLR,,0.00,WeatherDisplay:10.37,2013-02-10 23:15:00,
2013-02-10 18:30:00,47.0,20.7,30.29,South,178,0.0,0.0,35,0.00,CLR,,0.00,WeatherDisplay:10.37,2013-02-10 23:30:00,
2013-02-10 18:45:00,46.4,22.1,30.29,South,178,0.0,0.0,38,0.00,CLR,,0.00,WeatherDisplay:10.37,2013-02-10 23:45:00,
2013-02-10 19:00:00,46.0,22.4,30.29,South,178,0.0,1.0,39,0.00,CLR,,0.00,WeatherDisplay:10.37,2013-02-11 00:00:00,
2013-02-10 19:15:00,45.5,23.7,30.28,South,178,0.0,1.0,42,0.00,CLR,,0.00,WeatherDisplay:10.37,2013-02-11 00:15:00,
2013-02-10 19:30:00,45.3,24.6,30.28,South,178,0.0,1.0,44,0.00,OVC,,0.00,WeatherDisplay:10.37,2013-02-11 00:30:00,
2013-02-10 19:45:00,45.1,24.5,30.29,South,178,0.0,2.0,44,0.00,OVC,,0.00,WeatherDisplay:10.37,2013-02-11 00:45:00,
2013-02-10 20:00:00,45.1,27.1,30.28,South,178,0.0,2.0,49,0.00,OVC,,0.00,WeatherDisplay:10.37,2013-02-11 01:00:00,
2013-02-10 20:15:00,44.9,24.8,30.29,South,178,0.0,1.0,45,0.00,OVC,,0.00,WeatherDisplay:10.37,2013-02-11 01:15:00,
2013-02-10 20:30:00,45.2,26.7,30.29,South,178,0.0,1.0,48,0.00,OVC,,0.00,WeatherDisplay:10.37,2013-02-11 01:30:00,
2013-02-10 20:45:00,44.7,32.1,30.29,South,178,0.0,1.0,61,0.00,OVC,,0.00,WeatherDisplay:10.37,2013-02-11 01:45:00,
2013-02-10 21:00:00,43.5,34.3,30.29,South,178,0.0,1.0,70,0.02,RA,,0.02,WeatherDisplay:10.37,2013-02-11 02:00:00,
2013-02-10 21:15:00,41.9,34.9,30.29,South,178,0.0,0.0,76,0.04,RA,,0.06,WeatherDisplay:10.37,2013-02-11 02:15:00,
2013-02-10 21:30:00,40.7,35.3,30.29,South,178,0.0,0.0,81,0.04,RA,,0.10,WeatherDisplay:10.37,2013-02-11 02:30:00,
2013-02-10 21:45:00,39.9,35.2,30.28,South,178,0.0,1.0,83,0.02,RA,,0.12,WeatherDisplay:10.37,2013-02-11 02:45:00,
2013-02-10 22:00:00,39.8,35.7,30.26,South,178,0.0,1.0,85,0.01,RA,,0.13,WeatherDisplay:10.37,2013-02-11 03:00:00,
2013-02-10 22:15:00,39.7,35.9,30.25,South,178,0.0,1.0,86,0.00,OVC,,0.13,WeatherDisplay:10.37,2013-02-11 03:15:00,
2013-02-10 22:30:00,39.7,36.1,30.24,South,178,0.0,1.0,87,0.00,-RA,,0.13,WeatherDisplay:10.37,2013-02-11 03:30:00,
2013-02-10 22:45:00,39.7,36.2,30.22,South,178,0.0,0.0,87,0.00,-RA,,0.13,WeatherDisplay:10.37,2013-02-11 03:45:00,
2013-02-10 23:00:00,39.9,36.6,30.21,South,178,0.0,1.0,88,0.00,-RA,,0.13,WeatherDisplay:10.37,2013-02-11 04:00:00,
2013-02-10 23:15:00,40.0,36.7,30.20,South,178,0.0,1.0,88,0.00,-RA,,0.13,WeatherDisplay:10.37,2013-02-11 04:15:00,
2013-02-10 23:30:00,40.3,37.3,30.21,South,178,0.0,3.0,89,0.00,OVC,,0.13,WeatherDisplay:10.37,2013-02-11 04:30:00,
2013-02-10 23:45:00,40.6,37.6,30.20,West,274,0.0,4.0,89,0.00,OVC,,0.13,WeatherDisplay:10.37,2013-02-11 04:45:00,